NOAA NWS Hourly Roundups by Site

Regional Weather Roundup for Seattle, WA

To Select Another Site Choose from List

Select Site:  

000
ASUS46 KSEW 190210
RWRWA

WASHINGTON REGIONAL WEATHER ROUNDUP
NATIONAL WEATHER SERVICE SEATTLE WA
700 PM PDT MON MAR 18 2019

NOTE:"FAIR" INDICATES FEW OR NO CLOUDS BELOW 12,000 FEET WITH NO
SIGNIFICANT WEATHER AND/OR OBSTRUCTIONS TO VISIBILITY.

WAZ507-509-555>559-190300-
SEATTLE, TACOMA, EVERETT, AND VICINITY

CITY           SKY/WX    TMP DP  RH WIND       PRES   REMARKS
EVERETT        CLEAR     63  35  35 N6        30.10F
BOEING FIELD   CLEAR     71  22  15 E7        30.07F
RENTON         CLEAR     70  26  19 E10G20    30.08R
SEATAC AIRPORT CLEAR     70  23  17 E20G29    30.08F
JBLM-MCCHORD   CLEAR     69  35  29 NE8       30.05F
PUYALLUP       FAIR      70  25  18 CALM      30.05F
BREMERTON      CLEAR     66  35  31 NE7       30.09S
JBLM-FT LEWIS  CLEAR     70  36  28 N9        30.06F
TACOMA NARROWS CLEAR     66  29  24 N9        30.06F
$$

WAZ001-503-506-510-514-515-190300-
NORTH INTERIOR

CITY           SKY/WX    TMP DP  RH WIND       PRES   REMARKS
BELLINGHAM     CLEAR     57  39  51 SE3       30.10F
FRIDAY HARBOR  CLEAR     57  33  40 NW3       30.10F
EASTSOUND      CLEAR     50  41  71 CALM      30.10F
PORT ANGELES   CLEAR     57  38  48 E7        30.09F
EDIZ HOOK      FAIR      52  42  68 E7        30.08F
PORT TOWNSEND  FAIR      54  43  66 CALM      30.08F
NAS WHIDBEY    PTCLDY    58  40  51 SE3       30.12F
ARLINGTON      CLEAR     63  41  44 NW5       30.09F
BURLINGTON     CLEAR     55  37  50 CALM      30.10S
$$

WAZ020-022-039-040-504-511-512-190300-
SOUTHWEST INTERIOR

CITY           SKY/WX    TMP DP  RH WIND       PRES   REMARKS
SHELTON        CLEAR     70  30  22 N7        30.04S
OLYMPIA        CLEAR     68  29  23 NE10      30.04F
CHEHALIS       FAIR      72  28  20 SE6G15    30.04R
KELSO          CLEAR     68  28  22 SE12G21   30.05S
VANCOUVER      CLEAR     62  29  28 E20G29    30.06S
SCAPPOOSE, OR  CLEAR     64  32  30 E7        30.07S
PORTLAND, OR   CLEAR     61  31  32 E24G30    30.06S
$$

WAZ021-516-517-190300-
WASHINGTON COAST

CITY           SKY/WX    TMP DP  RH WIND       PRES   REMARKS
FORKS          CLEAR     65  34  31 NE10      30.00F
HOQUIAM        CLEAR     71  32  23 NE12      29.99F
ASTORIA, OR    CLEAR     68  28  22 E13G31    29.97S
$$

WAZ019-023-024-040-567>569-190300-
CASCADE MOUNTAINS AND COLUMBIA GORGE

CITY           SKY/WX    TMP DP  RH WIND       PRES   REMARKS
STAMPEDE PASS  NOT AVBL
TROUTDALE, OR  CLEAR     58  33  39 E12G22    30.07S
HOOD RIVER, OR CLEAR     52  34  50 MISG      30.23S
THE DALLES, OR CLEAR     52  36  54 CALM      30.24S
$$

WAZ026-027-041>044-520-521-190300-
EAST SLOPES

CITY           SKY/WX    TMP DP  RH WIND       PRES   REMARKS
OMAK           CLEAR     51  34  52 S3        30.26S
WENATCHEE      CLEAR     53  31  42 N5        30.24F
ELLENSBURG     CLEAR     50  33  52 N7        30.24S
YAKIMA         CLEAR     55  31  39 N9        30.24F
SUNNYSIDE ARPT CLEAR     50  38  65 SE3       30.24
YAKIMA TC      FAIR      50  32  49 NE5       30.22F
$$

WAZ028-034-035-190300-
COLUMBIA BASIN

CITY           SKY/WX    TMP DP  RH WIND       PRES   REMARKS
EPHRATA        CLEAR     46  31  55 N7        30.23F
MOSES LAKE     CLEAR     46  34  62 N9        30.24F
PASCO          CLEAR     46  35  65 SE7       30.26S
RICHLAND ARPT  CLEAR     51  37  59 E5        30.25S
HERMISTON, OR  CLEAR     49  35  58 E3        30.24S
$$

WAZ036>038-190300-
NORTHEAST WASHINGTON

CITY           SKY/WX    TMP DP  RH WIND       PRES   REMARKS
SPOKANE GEIGER PTCLDY    54  22  28 NW5       30.23F
SPOKANE FELTS  CLEAR     49  27  42 N3        30.23F
FAIRCHILD AFB  CLEAR     50  29  44 SW6       30.22F
COEURDALENE,ID CLEAR     48  27  44 CALM      30.23F
DEER PARK      CLEAR     47  22  37 MISG      30.23F
$$

WAZ029>033-190300-
SOUTHEAST WASHINGTON

CITY           SKY/WX    TMP DP  RH WIND       PRES   REMARKS
PULLMAN        CLEAR     41  30  65 CALM      30.23F
LEWISTON, ID   CLEAR     49  33  54 SE3       30.21S
WALLA WALLA    CLEAR     47  38  71 W3        30.23F
PENDLETON, OR  CLEAR     43  35  73 NE8       30.22F
$$



 

View Past Reports for Seattle, WA.

Products Courtesy of NOAA-NWS
NWS Information Parsing Script by Ken True at Saratoga Weather - Script by SE Lincoln Weather.